QPF
0.01 0.00 0.00 0.00 0.01 0.01 0.01 0.01 0.01 0.01 0.01 0.00 0.00 0.01 0.02 0.02 0.03 0.04 0.03 0.01 0.01 0.00 0.01 0.01 0.02 0.03 0.02 0.03 0.03 0.04 0.05 0.05 0.05 0.06 0.06 0.08 0.08 0.07 0.10 0.12 0.13 0.14 0.11 0.09 0.10 0.12 0.10 0.10 0.09
0.00 0.00 0.00 0.00 0.01 0.01 0.01 0.01 0.01 0.01 0.00 0.00 0.01 0.01 0.01 0.01 0.01 0.02 0.02 0.01 0.01 0.00 0.00 0.01 0.02 0.02 0.02 0.03 0.04 0.05 0.05 0.05 0.04 0.04 0.04 0.06 0.07 0.06 0.09 0.13 0.15 0.15 0.11 0.09 0.09 0.10 0.10 0.11 0.11
0.00 0.00 0.00 0.01 0.01 0.01 0.02 0.01 0.01 0.00 0.00 0.00 0.01 0.01 0.01 0.01 0.01 0.01 0.01 0.01 0.00 0.00 0.00 0.01 0.01 0.02 0.02 0.02 0.04 0.05 0.05 0.06 0.05 0.05 0.05 0.05 0.06 0.07 0.09 0.13 0.15 0.15 0.11 0.10 0.11 0.14 0.13 0.12 0.10
0.00 0.00 0.00 0.01 0.01 0.01 0.01 0.01 0.00 0.00 0.01 0.01 0.01 0.01 0.01 0.01 0.01 0.01 0.01 0.00 0.00 0.00 0.00 0.01 0.01 0.01 0.02 0.03 0.04 0.04 0.05 0.06 0.06 0.05 0.04 0.04 0.05 0.07 0.09 0.12 0.13 0.13 0.11 0.10 0.15 0.23 0.17 0.14 0.11
0.00 0.00 0.00 0.00 0.01 0.01 0.01 0.01 0.01 0.02 0.01 0.01 0.01 0.02 0.02 0.01 0.01 0.00 0.00 0.00 0.00 0.00 0.00 0.00 0.01 0.02 0.02 0.03 0.04 0.05 0.05 0.06 0.06 0.05 0.05 0.05 0.05 0.05 0.08 0.10 0.12 0.12 0.12 0.14 0.27 0.32 0.23 0.17 0.11
0.00 0.00 0.00 0.01 0.01 0.01 0.00 0.00 0.01 0.04 0.02 0.02 0.01 0.01 0.03 0.01 0.01 0.00 0.00 0.00 0.00 0.00 0.00 0.00 0.01 0.02 0.02 0.03 0.04 0.05 0.05 0.05 0.05 0.04 0.04 0.04 0.04 0.04 0.08 0.12 0.12 0.11 0.12 0.17 0.34 0.35 0.27 0.19 0.11
0.00 0.00 0.00 0.00 0.01 0.01 0.00 0.00 0.00 0.01 0.01 0.01 0.01 0.01 0.01 0.01 0.01 0.01 0.00 0.00 0.00 0.00 0.00 0.00 0.00 0.01 0.02 0.03 0.03 0.03 0.04 0.04 0.03 0.03 0.03 0.03 0.04 0.05 0.08 0.11 0.11 0.11 0.10 0.11 0.26 0.33 0.27 0.19 0.13
0.00 0.00 0.00 0.00 0.00 0.01 0.00 0.00 0.00 0.00 0.01 0.01 0.01 0.01 0.01 0.00 0.00 0.00 0.00 0.00 0.00 0.00 0.00 0.00 0.00 0.00 0.01 0.01 0.02 0.03 0.04 0.04 0.03 0.03 0.03 0.03 0.04 0.06 0.08 0.09 0.10 0.11 0.12 0.13 0.18 0.24 0.22 0.16 0.12
0.00 0.00 0.00 0.00 0.00 0.01 0.00 0.00 0.00 0.00 0.01 0.01 0.01 0.01 0.01 0.00 0.00 0.00 0.00 0.00 0.00 0.00 0.00 0.00 0.00 0.00 0.01 0.01 0.01 0.01 0.02 0.01 0.01 0.02 0.03 0.02 0.03 0.06 0.12 0.16 0.17 0.17 0.14 0.11 0.10 0.13 0.15 0.12 0.08
0.01 0.01 0.01 0.00 0.00 0.00 0.00 0.00 0.00 0.00 0.01 0.01 0.01 0.02 0.01 0.01 0.01 0.00 0.00 0.00 0.00 0.00 0.01 0.00 0.00 0.00 0.00 0.00 0.01 0.01 0.01 0.01 0.01 0.01 0.02 0.02 0.04 0.10 0.15 0.14 0.15 0.10 0.07 0.07 0.06 0.05 0.04 0.03 0.03
0.01 0.01 0.00 0.00 0.00 0.00 0.00 0.00 0.00 0.01 0.02 0.01 0.01 0.01 0.01 0.01 0.01 0.01 0.00 0.00 0.00 0.00 0.01 0.00 0.00 0.00 0.00 0.01 0.01 0.01 0.01 0.01 0.01 0.02 0.02 0.02 0.02 0.06 0.07 0.05 0.03 0.02 0.02 0.03 0.03 0.03 0.02 0.02 0.02
0.00 0.00 0.00 0.00 0.00 0.00 0.00 0.00 0.00 0.01 0.03 0.01 0.02 0.01 0.01 0.02 0.02 0.01 0.00 0.00 0.00 0.00 0.00 0.00 0.00 0.00 0.00 0.00 0.01 0.01 0.01 0.02 0.02 0.02 0.01 0.02 0.01 0.01 0.01 0.01 0.01 0.01 0.02 0.02 0.01 0.02 0.01 0.02 0.02
0.00 0.00 0.00 0.00 0.00 0.00 0.01 0.00 0.00 0.02 0.03 0.02 0.02 0.01 0.01 0.01 0.01 0.01 0.00 0.00 0.00 0.00 0.00 0.00 0.00 0.00 0.00 0.00 0.00 0.01 0.01 0.02 0.02 0.02 0.01 0.01 0.01 0.01 0.02 0.02 0.02 0.02 0.01 0.01 0.01 0.01 0.01 0.01 0.01
0.00 0.00 0.00 0.00 0.00 0.01 0.01 0.01 0.01 0.02 0.02 0.02 0.02 0.01 0.01 0.00 0.00 0.00 0.00 0.00 0.01 0.01 0.01 0.01 0.01 0.00 0.00 0.01 0.01 0.02 0.02 0.02 0.02 0.02 0.01 0.02 0.03 0.03 0.03 0.02 0.02 0.02 0.02 0.01 0.01 0.01 0.01 0.01 0.01
0.00 0.00 0.00 0.01 0.01 0.01 0.01 0.01 0.01 0.02 0.02 0.02 0.02 0.01 0.01 0.01 0.01 0.00 0.01 0.01 0.01 0.01 0.00 0.01 0.01 0.00 0.00 0.01 0.01 0.02 0.03 0.03 0.03 0.02 0.02 0.02 0.03 0.03 0.03 0.03 0.03 0.02 0.02 0.01 0.01 0.01 0.01 0.01 0.02
0.00 0.00 0.01 0.01 0.01 0.01 0.01 0.01 0.01 0.01 0.02 0.01 0.02 0.01 0.01 0.01 0.01 0.01 0.01 0.01 0.01 0.01 0.01 0.02 0.02 0.01 0.00 0.00 0.01 0.01 0.03 0.04 0.03 0.03 0.02 0.03 0.03 0.03 0.03 0.02 0.02 0.02 0.01 0.02 0.01 0.01 0.01 0.02 0.01
0.00 0.01 0.01 0.01 0.00 0.01 0.02 0.01 0.01 0.01 0.01 0.01 0.02 0.01 0.01 0.01 0.01 0.01 0.00 0.01 0.01 0.01 0.02 0.03 0.03 0.02 0.01 0.01 0.00 0.01 0.02 0.01 0.02 0.02 0.02 0.02 0.02 0.02 0.03 0.02 0.01 0.01 0.01 0.01 0.01 0.01 0.02 0.01 0.01
0.00 0.00 0.00 0.01 0.00 0.01 0.02 0.01 0.01 0.01 0.01 0.01 0.02 0.01 0.01 0.01 0.01 0.00 0.00 0.01 0.01 0.01 0.01 0.01 0.01 0.02 0.01 0.00 0.00 0.01 0.01 0.00 0.00 0.01 0.01 0.02 0.02 0.02 0.01 0.01 0.01 0.01 0.01 0.02 0.02 0.02 0.02 0.01 0.01
0.00 0.00 0.00 0.00 0.00 0.00 0.01 0.00 0.00 0.00 0.00 0.00 0.01 0.01 0.01 0.01 0.00 0.00 0.01 0.01 0.01 0.01 0.01 0.01 0.01 0.00 0.00 0.00 0.00 0.01 0.01 0.01 0.01 0.01 0.01 0.02 0.02 0.03 0.02 0.01 0.01 0.01 0.02 0.02 0.02 0.03 0.02 0.01 0.01
0.00 0.00 0.00 0.00 0.00 0.00 0.00 0.00 0.00 0.00 0.00 0.00 0.00 0.00 0.00 0.00 0.00 0.01 0.01 0.01 0.01 0.01 0.01 0.01 0.00 0.00 0.01 0.01 0.01 0.01 0.01 0.02 0.02 0.02 0.03 0.03 0.02 0.02 0.02 0.02 0.02 0.02 0.02 0.02 0.02 0.02 0.02 0.01 0.01
0.00 0.00 0.00 0.00 0.00 0.00 0.00 0.00 0.00 0.00 0.00 0.00 0.00 0.00 0.00 0.01 0.00 0.01 0.01 0.01 0.00 0.00 0.00 0.00 0.01 0.01 0.01 0.01 0.01 0.02 0.03 0.03 0.03 0.03 0.02 0.02 0.01 0.01 0.01 0.02 0.02 0.01 0.02 0.02 0.03 0.02 0.03 0.03 0.02
0.00 0.00 0.00 0.00 0.00 0.00 0.00 0.00 0.00 0.00 0.00 0.00 0.00 0.00 0.00 0.00 0.00 0.00 0.01 0.01 0.01 0.01 0.00 0.00 0.00 0.01 0.01 0.01 0.01 0.02 0.02 0.03 0.02 0.02 0.02 0.01 0.01 0.02 0.01 0.01 0.01 0.01 0.02 0.02 0.02 0.02 0.03 0.03 0.02
0.00 0.00 0.00 0.00 0.00 0.00 0.00 0.00 0.00 0.00 0.00 0.00 0.00 0.00 0.00 0.00 0.00 0.00 0.00 0.01 0.01 0.02 0.01 0.01 0.00 0.00 0.00 0.01 0.02 0.02 0.01 0.02 0.02 0.01 0.02 0.02 0.01 0.01 0.01 0.01 0.01 0.01 0.02 0.03 0.02 0.01 0.02 0.02 0.02
0.01 0.01 0.01 0.00 0.01 0.01 0.00 0.00 0.00 0.00 0.00 0.00 0.00 0.00 0.00 0.00 0.00 0.00 0.00 0.00 0.01 0.01 0.02 0.02 0.01 0.01 0.00 0.01 0.01 0.02 0.02 0.01 0.01 0.02 0.02 0.01 0.01 0.01 0.01 0.01 0.01 0.02 0.02 0.01 0.02 0.02 0.02 0.02 0.02
0.01 0.02 0.02 0.01 0.01 0.00 0.00 0.00 0.00 0.00 0.00 0.00 0.00 0.00 0.00 0.00 0.00 0.00 0.00 0.00 0.00 0.01 0.01 0.01 0.01 0.01 0.01 0.01 0.01 0.02 0.02 0.02 0.01 0.02 0.02 0.01 0.01 0.01 0.01 0.00 0.01 0.01 0.02 0.01 0.01 0.02 0.02 0.02 0.02
0.01 0.02 0.02 0.01 0.01 0.00 0.00 0.00 0.00 0.00 0.00 0.00 0.00 0.00 0.00 0.01 0.00 0.00 0.00 0.00 0.00 0.00 0.00 0.00 0.01 0.02 0.01 0.01 0.02 0.03 0.02 0.03 0.02 0.03 0.02 0.01 0.01 0.01 0.00 0.00 0.00 0.01 0.01 0.01 0.01 0.02 0.02 0.02 0.02
0.01 0.02 0.02 0.02 0.01 0.01 0.00 0.00 0.00 0.00 0.00 0.00 0.00 0.00 0.00 0.00 0.00 0.00 0.00 0.00 0.00 0.00 0.00 0.00 0.01 0.01 0.01 0.01 0.02 0.03 0.03 0.04 0.03 0.02 0.03 0.02 0.01 0.01 0.01 0.00 0.01 0.01 0.01 0.02 0.02 0.02 0.02 0.02 0.02
0.01 0.01 0.02 0.02 0.02 0.02 0.01 0.01 0.00 0.00 0.00 0.00 0.00 0.00 0.00 0.00 0.00 0.00 0.00 0.00 0.00 0.00 0.00 0.01 0.01 0.01 0.01 0.02 0.03 0.04 0.05 0.04 0.04 0.04 0.02 0.02 0.02 0.02 0.02 0.01 0.01 0.01 0.01 0.02 0.02 0.01 0.01 0.01 0.02
0.01 0.01 0.02 0.02 0.02 0.02 0.01 0.01 0.00 0.00 0.00 0.00 0.00 0.00 0.00 0.00 0.00 0.00 0.00 0.00 0.00 0.00 0.00 0.00 0.01 0.01 0.01 0.02 0.02 0.04 0.05 0.05 0.05 0.05 0.03 0.02 0.02 0.02 0.02 0.02 0.01 0.01 0.01 0.01 0.01 0.01 0.01 0.01 0.01
0.00 0.00 0.01 0.01 0.01 0.01 0.01 0.01 0.00 0.00 0.00 0.00 0.00 0.00 0.00 0.00 0.00 0.00 0.00 0.00 0.00 0.00 0.01 0.01 0.01 0.02 0.02 0.03 0.03 0.04 0.04 0.04 0.04 0.05 0.03 0.03 0.02 0.02 0.02 0.02 0.01 0.01 0.01 0.01 0.01 0.01 0.01 0.01 0.01
MSLP
1008.75 1009.34 1010.16 1011.15 1012.21 1013.23 1014.11 1014.81 1015.30 1015.60 1015.77 1015.85 1015.90 1015.95 1015.99 1016.00 1015.95 1015.79 1015.52 1015.15 1014.72 1014.28 1013.88 1013.56 1013.33 1013.18 1013.09 1013.00 1012.88 1012.72 1012.51 1012.29 1012.07 1011.89 1011.77 1011.71 1011.70 1011.71 1011.71 1011.68 1011.62 1011.52 1011.42 1011.32 1011.24 1011.20 1011.20 1011.23 1011.29
1009.11 1009.88 1010.85 1011.93 1012.99 1013.95 1014.71 1015.24 1015.53 1015.64 1015.63 1015.59 1015.56 1015.58 1015.63 1015.69 1015.69 1015.60 1015.39 1015.08 1014.70 1014.29 1013.92 1013.62 1013.42 1013.29 1013.21 1013.14 1013.04 1012.89 1012.70 1012.49 1012.29 1012.12 1012.00 1011.94 1011.92 1011.91 1011.90 1011.85 1011.78 1011.68 1011.58 1011.50 1011.46 1011.46 1011.50 1011.58 1011.69
1009.63 1010.54 1011.61 1012.71 1013.73 1014.59 1015.20 1015.55 1015.66 1015.59 1015.45 1015.29 1015.21 1015.20 1015.26 1015.34 1015.39 1015.35 1015.20 1014.94 1014.60 1014.25 1013.92 1013.66 1013.49 1013.41 1013.36 1013.32 1013.25 1013.14 1012.97 1012.77 1012.57 1012.39 1012.26 1012.17 1012.12 1012.08 1012.03 1011.97 1011.89 1011.80 1011.73 1011.69 1011.70 1011.77 1011.88 1012.03 1012.20
1010.27 1011.26 1012.35 1013.42 1014.37 1015.10 1015.56 1015.75 1015.72 1015.52 1015.28 1015.06 1014.93 1014.90 1014.96 1015.06 1015.12 1015.11 1014.99 1014.77 1014.48 1014.18 1013.90 1013.71 1013.60 1013.56 1013.57 1013.57 1013.54 1013.45 1013.30 1013.11 1012.90 1012.71 1012.56 1012.44 1012.35 1012.27 1012.20 1012.12 1012.04 1011.98 1011.96 1011.99 1012.07 1012.22 1012.41 1012.62 1012.85
1010.94 1011.96 1013.01 1014.00 1014.83 1015.43 1015.76 1015.84 1015.71 1015.46 1015.17 1014.93 1014.79 1014.76 1014.82 1014.90 1014.97 1014.96 1014.85 1014.65 1014.40 1014.15 1013.94 1013.80 1013.76 1013.78 1013.84 1013.88 1013.88 1013.81 1013.68 1013.49 1013.29 1013.08 1012.90 1012.76 1012.64 1012.54 1012.46 1012.39 1012.34 1012.32 1012.36 1012.46 1012.62 1012.84 1013.10 1013.37 1013.64
1011.58 1012.54 1013.50 1014.36 1015.05 1015.53 1015.77 1015.78 1015.63 1015.38 1015.13 1014.92 1014.81 1014.79 1014.85 1014.92 1014.96 1014.93 1014.82 1014.63 1014.41 1014.21 1014.05 1013.98 1014.00 1014.08 1014.17 1014.25 1014.27 1014.22 1014.09 1013.91 1013.70 1013.49 1013.31 1013.16 1013.04 1012.95 1012.88 1012.84 1012.84 1012.88 1012.98 1013.15 1013.38 1013.65 1013.94 1014.23 1014.51
1012.07 1012.93 1013.74 1014.45 1015.00 1015.37 1015.54 1015.55 1015.44 1015.27 1015.09 1014.98 1014.93 1014.95 1015.01 1015.07 1015.09 1015.04 1014.92 1014.74 1014.55 1014.38 1014.29 1014.27 1014.34 1014.45 1014.57 1014.66 1014.69 1014.64 1014.51 1014.34 1014.14 1013.95 1013.78 1013.66 1013.57 1013.51 1013.49 1013.50 1013.55 1013.66 1013.82 1014.03 1014.30 1014.58 1014.88 1015.15 1015.39
1012.37 1013.09 1013.74 1014.28 1014.69 1014.97 1015.12 1015.16 1015.13 1015.07 1015.03 1015.03 1015.07 1015.15 1015.24 1015.29 1015.30 1015.23 1015.11 1014.95 1014.79 1014.67 1014.62 1014.65 1014.75 1014.89 1015.01 1015.10 1015.12 1015.06 1014.94 1014.78 1014.60 1014.45 1014.33 1014.25 1014.22 1014.22 1014.26 1014.33 1014.44 1014.59 1014.79 1015.03 1015.29 1015.57 1015.83 1016.05 1016.24
1012.49 1013.05 1013.53 1013.91 1014.21 1014.41 1014.56 1014.65 1014.73 1014.80 1014.90 1015.02 1015.16 1015.31 1015.43 1015.50 1015.51 1015.45 1015.34 1015.22 1015.10 1015.04 1015.04 1015.11 1015.23 1015.37 1015.49 1015.56 1015.56 1015.49 1015.37 1015.23 1015.09 1014.98 1014.92 1014.92 1014.95 1015.03 1015.13 1015.26 1015.41 1015.59 1015.81 1016.04 1016.28 1016.52 1016.72 1016.88 1016.99
1012.46 1012.90 1013.22 1013.47 1013.66 1013.82 1013.97 1014.12 1014.29 1014.48 1014.70 1014.93 1015.15 1015.36 1015.52 1015.61 1015.65 1015.62 1015.56 1015.48 1015.43 1015.43 1015.48 1015.59 1015.73 1015.86 1015.97 1016.02 1016.00 1015.92 1015.81 1015.69 1015.60 1015.55 1015.56 1015.62 1015.73 1015.87 1016.03 1016.19 1016.37 1016.57 1016.77 1016.98 1017.19 1017.37 1017.51 1017.60 1017.65
1012.38 1012.71 1012.93 1013.08 1013.21 1013.33 1013.49 1013.68 1013.91 1014.18 1014.47 1014.76 1015.04 1015.28 1015.47 1015.60 1015.68 1015.70 1015.70 1015.70 1015.73 1015.80 1015.92 1016.06 1016.22 1016.35 1016.44 1016.47 1016.44 1016.36 1016.26 1016.17 1016.13 1016.14 1016.21 1016.33 1016.50 1016.68 1016.87 1017.06 1017.25 1017.43 1017.61 1017.79 1017.96 1018.10 1018.19 1018.24 1018.25
1012.32 1012.60 1012.76 1012.86 1012.95 1013.06 1013.21 1013.42 1013.67 1013.97 1014.28 1014.58 1014.87 1015.12 1015.32 1015.48 1015.59 1015.68 1015.76 1015.85 1015.97 1016.11 1016.29 1016.48 1016.66 1016.80 1016.88 1016.91 1016.87 1016.80 1016.72 1016.67 1016.66 1016.72 1016.83 1017.00 1017.20 1017.41 1017.61 1017.80 1017.97 1018.14 1018.30 1018.46 1018.60 1018.72 1018.80 1018.84 1018.85
1012.32 1012.60 1012.76 1012.86 1012.94 1013.05 1013.20 1013.40 1013.63 1013.90 1014.17 1014.44 1014.69 1014.91 1015.11 1015.28 1015.44 1015.58 1015.74 1015.92 1016.12 1016.34 1016.58 1016.81 1017.02 1017.18 1017.27 1017.31 1017.29 1017.24 1017.19 1017.17 1017.19 1017.28 1017.42 1017.60 1017.81 1018.02 1018.21 1018.39 1018.55 1018.70 1018.85 1019.00 1019.15 1019.28 1019.38 1019.45 1019.49
1012.40 1012.71 1012.92 1013.05 1013.17 1013.29 1013.43 1013.60 1013.78 1013.98 1014.17 1014.37 1014.55 1014.72 1014.90 1015.07 1015.26 1015.46 1015.68 1015.93 1016.19 1016.48 1016.77 1017.04 1017.28 1017.46 1017.59 1017.66 1017.67 1017.66 1017.64 1017.65 1017.70 1017.80 1017.95 1018.13 1018.32 1018.51 1018.69 1018.85 1019.00 1019.14 1019.30 1019.47 1019.64 1019.82 1019.97 1020.10 1020.20
1012.49 1012.86 1013.13 1013.33 1013.49 1013.64 1013.78 1013.91 1014.03 1014.15 1014.25 1014.35 1014.46 1014.58 1014.72 1014.90 1015.10 1015.34 1015.61 1015.91 1016.22 1016.54 1016.86 1017.17 1017.44 1017.66 1017.82 1017.94 1018.00 1018.04 1018.07 1018.10 1018.17 1018.28 1018.41 1018.58 1018.75 1018.92 1019.07 1019.23 1019.37 1019.53 1019.71 1019.91 1020.14 1020.37 1020.59 1020.79 1020.95
1012.52 1012.96 1013.30 1013.57 1013.79 1013.97 1014.10 1014.20 1014.26 1014.29 1014.31 1014.34 1014.38 1014.46 1014.59 1014.77 1015.00 1015.27 1015.56 1015.88 1016.21 1016.55 1016.88 1017.20 1017.49 1017.76 1017.97 1018.15 1018.28 1018.37 1018.45 1018.52 1018.61 1018.71 1018.83 1018.97 1019.12 1019.27 1019.42 1019.58 1019.74 1019.92 1020.13 1020.37 1020.64 1020.93 1021.21 1021.47 1021.68
1012.42 1012.91 1013.31 1013.65 1013.93 1014.13 1014.27 1014.34 1014.34 1014.31 1014.26 1014.23 1014.25 1014.32 1014.46 1014.66 1014.92 1015.22 1015.53 1015.86 1016.18 1016.51 1016.84 1017.16 1017.47 1017.77 1018.04 1018.28 1018.49 1018.65 1018.78 1018.89 1018.99 1019.10 1019.21 1019.34 1019.47 1019.62 1019.78 1019.94 1020.13 1020.34 1020.58 1020.85 1021.15 1021.47 1021.78 1022.07 1022.31
1012.17 1012.69 1013.14 1013.53 1013.84 1014.06 1014.19 1014.23 1014.19 1014.11 1014.02 1013.97 1013.98 1014.08 1014.27 1014.52 1014.83 1015.16 1015.50 1015.83 1016.14 1016.44 1016.75 1017.06 1017.39 1017.72 1018.05 1018.36 1018.64 1018.87 1019.06 1019.22 1019.34 1019.45 1019.56 1019.68 1019.82 1019.97 1020.15 1020.34 1020.55 1020.78 1021.04 1021.32 1021.63 1021.94 1022.25 1022.53 1022.77
1011.79 1012.33 1012.82 1013.24 1013.57 1013.79 1013.89 1013.88 1013.79 1013.66 1013.55 1013.50 1013.54 1013.69 1013.95 1014.29 1014.67 1015.06 1015.43 1015.76 1016.06 1016.34 1016.63 1016.93 1017.26 1017.63 1018.01 1018.39 1018.74 1019.05 1019.30 1019.49 1019.64 1019.77 1019.89 1020.02 1020.17 1020.34 1020.54 1020.76 1020.99 1021.23 1021.49 1021.76 1022.03 1022.30 1022.57 1022.81 1023.01
1011.37 1011.94 1012.46 1012.90 1013.22 1013.41 1013.46 1013.38 1013.22 1013.03 1012.88 1012.83 1012.90 1013.12 1013.47 1013.91 1014.38 1014.85 1015.27 1015.63 1015.93 1016.21 1016.48 1016.77 1017.12 1017.51 1017.94 1018.38 1018.81 1019.18 1019.49 1019.73 1019.91 1020.05 1020.18 1020.33 1020.50 1020.70 1020.92 1021.16 1021.41 1021.65 1021.89 1022.11 1022.32 1022.53 1022.72 1022.90 1023.05
1011.02 1011.63 1012.19 1012.64 1012.95 1013.09 1013.05 1012.87 1012.60 1012.32 1012.10 1012.02 1012.11 1012.38 1012.82 1013.36 1013.94 1014.50 1015.00 1015.41 1015.74 1016.02 1016.30 1016.60 1016.96 1017.38 1017.86 1018.35 1018.83 1019.26 1019.62 1019.90 1020.11 1020.28 1020.43 1020.60 1020.78 1021.00 1021.25 1021.51 1021.76 1021.99 1022.19 1022.36 1022.50 1022.62 1022.73 1022.83 1022.92
1010.82 1011.52 1012.14 1012.62 1012.90 1012.97 1012.83 1012.50 1012.08 1011.65 1011.32 1011.16 1011.23 1011.53 1012.02 1012.65 1013.34 1014.00 1014.59 1015.08 1015.47 1015.79 1016.09 1016.41 1016.80 1017.25 1017.76 1018.30 1018.83 1019.30 1019.70 1020.02 1020.25 1020.44 1020.61 1020.79 1020.99 1021.23 1021.49 1021.76 1022.01 1022.22 1022.38 1022.49 1022.56 1022.61 1022.64 1022.69 1022.74
1010.78 1011.61 1012.32 1012.85 1013.13 1013.12 1012.85 1012.36 1011.75 1011.14 1010.64 1010.36 1010.35 1010.62 1011.14 1011.83 1012.61 1013.38 1014.06 1014.64 1015.11 1015.49 1015.84 1016.20 1016.61 1017.10 1017.64 1018.21 1018.78 1019.28 1019.71 1020.05 1020.31 1020.51 1020.70 1020.88 1021.10 1021.35 1021.62 1021.89 1022.14 1022.33 1022.46 1022.53 1022.55 1022.55 1022.54 1022.55 1022.59
1010.87 1011.84 1012.68 1013.27 1013.56 1013.50 1013.11 1012.45 1011.64 1010.81 1010.12 1009.67 1009.54 1009.74 1010.24 1010.96 1011.80 1012.65 1013.44 1014.11 1014.67 1015.13 1015.54 1015.95 1016.41 1016.92 1017.49 1018.09 1018.67 1019.20 1019.65 1020.01 1020.28 1020.49 1020.68 1020.88 1021.10 1021.35 1021.63 1021.90 1022.14 1022.33 1022.45 1022.51 1022.51 1022.49 1022.47 1022.48 1022.54
1010.95 1012.08 1013.04 1013.73 1014.05 1013.95 1013.46 1012.66 1011.66 1010.63 1009.74 1009.11 1008.83 1008.93 1009.37 1010.08 1010.95 1011.87 1012.74 1013.52 1014.17 1014.71 1015.19 1015.66 1016.16 1016.70 1017.29 1017.91 1018.50 1019.05 1019.51 1019.88 1020.16 1020.38 1020.58 1020.77 1021.00 1021.25 1021.53 1021.81 1022.05 1022.25 1022.38 1022.45 1022.47 1022.47 1022.48 1022.53 1022.62
1010.87 1012.14 1013.23 1014.01 1014.38 1014.28 1013.74 1012.84 1011.70 1010.51 1009.44 1008.65 1008.23 1008.21 1008.58 1009.26 1010.13 1011.09 1012.03 1012.88 1013.61 1014.24 1014.80 1015.32 1015.86 1016.43 1017.04 1017.67 1018.27 1018.82 1019.29 1019.67 1019.97 1020.20 1020.40 1020.60 1020.82 1021.08 1021.36 1021.65 1021.91 1022.13 1022.29 1022.40 1022.46 1022.51 1022.57 1022.67 1022.81
1010.53 1011.87 1013.05 1013.91 1014.34 1014.29 1013.75 1012.81 1011.62 1010.34 1009.17 1008.26 1007.72 1007.61 1007.90 1008.53 1009.39 1010.36 1011.33 1012.23 1013.03 1013.73 1014.35 1014.93 1015.50 1016.10 1016.73 1017.36 1017.98 1018.54 1019.02 1019.41 1019.72 1019.96 1020.17 1020.39 1020.62 1020.88 1021.17 1021.47 1021.76 1022.01 1022.22 1022.38 1022.50 1022.61 1022.73 1022.88 1023.08
1009.88 1011.22 1012.43 1013.34 1013.84 1013.85 1013.37 1012.48 1011.31 1010.03 1008.84 1007.90 1007.31 1007.13 1007.36 1007.93 1008.76 1009.71 1010.68 1011.61 1012.45 1013.19 1013.85 1014.47 1015.08 1015.71 1016.35 1017.00 1017.62 1018.20 1018.70 1019.11 1019.44 1019.71 1019.94 1020.17 1020.42 1020.70 1021.00 1021.32 1021.63 1021.92 1022.18 1022.39 1022.57 1022.74 1022.92 1023.12 1023.35
1008.98 1010.23 1011.40 1012.31 1012.85 1012.94 1012.57 1011.80 1010.75 1009.58 1008.47 1007.57 1007.00 1006.81 1007.00 1007.52 1008.28 1009.19 1010.13 1011.04 1011.88 1012.63 1013.32 1013.97 1014.60 1015.25 1015.91 1016.58 1017.22 1017.82 1018.34 1018.78 1019.15 1019.45 1019.72 1019.98 1020.25 1020.55 1020.88 1021.22 1021.56 1021.89 1022.18 1022.44 1022.67 1022.89 1023.11 1023.34 1023.59
1008.01 1009.08 1010.13 1011.00 1011.56 1011.73 1011.49 1010.90 1010.03 1009.05 1008.10 1007.32 1006.82 1006.66 1006.83 1007.30 1007.99 1008.82 1009.69 1010.54 1011.34 1012.08 1012.76 1013.41 1014.06 1014.73 1015.41 1016.10 1016.77 1017.40 1017.96 1018.44 1018.85 1019.20 1019.51 1019.81 1020.12 1020.45 1020.81 1021.18 1021.55 1021.90 1022.23 1022.53 1022.79 1023.04 1023.27 1023.51 1023.76
Thickness
5791 5793 5794 5786 5774 5761 5747 5749 5757 5755 5756 5762 5763 5761 5756 5752 5747 5740 5755 5763 5762 5762 5761 5759 5758 5758 5759 5760 5761 5761 5762 5762 5762 5762 5763 5763 5764 5765 5765 5765 5766 5766 5767 5767 5767 5767 5767 5768 5768
5794 5793 5788 5780 5765 5748 5741 5752 5753 5755 5759 5762 5761 5760 5756 5752 5756 5755 5758 5760 5761 5760 5759 5758 5755 5756 5756 5757 5758 5758 5758 5759 5759 5759 5760 5760 5760 5761 5761 5761 5762 5762 5762 5763 5763 5763 5763 5763 5763
5792 5790 5779 5770 5757 5748 5742 5751 5754 5757 5762 5760 5757 5758 5755 5750 5754 5756 5759 5760 5760 5758 5757 5755 5753 5753 5754 5754 5755 5755 5755 5755 5756 5756 5756 5756 5757 5757 5757 5757 5758 5758 5758 5758 5758 5758 5758 5758 5758
5788 5782 5776 5762 5747 5750 5752 5754 5757 5755 5757 5760 5757 5751 5754 5756 5757 5759 5759 5759 5758 5756 5755 5752 5750 5750 5751 5751 5752 5752 5752 5752 5752 5752 5753 5753 5753 5753 5753 5754 5754 5754 5754 5753 5754 5754 5754 5754 5753
5786 5775 5760 5749 5745 5751 5757 5759 5759 5754 5753 5755 5756 5748 5746 5754 5759 5759 5757 5756 5755 5754 5753 5751 5747 5747 5748 5748 5748 5748 5748 5749 5749 5749 5749 5749 5749 5749 5749 5749 5749 5749 5749 5749 5749 5749 5749 5749 5749
5773 5769 5751 5740 5741 5749 5756 5760 5757 5754 5752 5753 5752 5746 5744 5754 5754 5754 5755 5753 5753 5751 5750 5749 5745 5745 5744 5744 5744 5745 5745 5745 5745 5745 5745 5745 5745 5745 5745 5745 5744 5744 5744 5744 5744 5746 5746 5744 5744
5767 5759 5747 5743 5740 5743 5751 5759 5757 5753 5749 5751 5754 5745 5744 5750 5752 5753 5752 5751 5750 5749 5748 5748 5747 5745 5742 5741 5741 5741 5741 5741 5741 5741 5740 5740 5740 5740 5740 5740 5740 5740 5739 5739 5739 5741 5740 5739 5738
5770 5760 5745 5743 5739 5740 5752 5756 5757 5755 5751 5756 5755 5744 5741 5748 5751 5751 5749 5748 5747 5747 5746 5746 5745 5744 5743 5741 5738 5737 5737 5737 5737 5736 5736 5736 5736 5736 5736 5735 5735 5735 5734 5734 5734 5734 5733 5733 5733
5770 5753 5741 5741 5740 5742 5752 5751 5754 5759 5754 5752 5753 5751 5751 5752 5750 5746 5744 5744 5743 5743 5744 5744 5743 5742 5741 5739 5736 5736 5734 5733 5734 5733 5732 5733 5735 5734 5732 5730 5729 5729 5729 5729 5728 5728 5728 5728 5728
5762 5745 5743 5750 5752 5750 5751 5751 5752 5751 5747 5746 5747 5748 5750 5748 5746 5742 5741 5740 5740 5740 5741 5742 5741 5740 5739 5737 5735 5735 5734 5732 5733 5732 5731 5731 5730 5728 5727 5724 5724 5723 5723 5723 5723 5724 5725 5726 5726
5757 5747 5749 5752 5755 5754 5750 5750 5753 5748 5741 5745 5745 5744 5745 5744 5742 5740 5740 5740 5739 5739 5738 5739 5739 5737 5736 5734 5733 5732 5730 5729 5729 5729 5727 5727 5726 5725 5724 5723 5721 5721 5720 5720 5720 5721 5722 5723 5722
5752 5750 5752 5752 5753 5752 5750 5749 5747 5745 5745 5752 5751 5748 5744 5740 5739 5738 5737 5738 5738 5736 5736 5736 5736 5736 5734 5733 5731 5729 5728 5727 5726 5725 5725 5724 5723 5722 5721 5719 5718 5717 5717 5716 5717 5717 5718 5718 5718
5750 5748 5751 5753 5752 5751 5749 5745 5744 5743 5748 5751 5749 5744 5741 5739 5738 5738 5739 5738 5736 5733 5733 5733 5733 5733 5732 5729 5727 5727 5725 5724 5723 5721 5722 5721 5720 5719 5717 5716 5713 5714 5713 5713 5713 5713 5713 5713 5713
5750 5749 5749 5750 5750 5749 5743 5742 5741 5741 5747 5745 5743 5740 5739 5738 5738 5738 5737 5736 5735 5733 5732 5732 5731 5730 5729 5727 5726 5724 5722 5720 5720 5719 5718 5717 5716 5715 5713 5712 5711 5710 5709 5709 5709 5708 5707 5707 5707
5751 5744 5743 5745 5747 5745 5743 5733 5735 5741 5743 5740 5739 5738 5737 5737 5737 5736 5736 5735 5735 5733 5732 5730 5728 5727 5726 5725 5723 5721 5718 5718 5717 5715 5715 5714 5712 5711 5710 5709 5708 5706 5705 5705 5704 5704 5703 5702 5702
5747 5739 5731 5738 5742 5742 5735 5723 5735 5741 5738 5736 5736 5736 5734 5734 5736 5736 5736 5735 5734 5732 5730 5727 5725 5724 5722 5721 5719 5718 5716 5715 5713 5712 5711 5711 5710 5708 5706 5705 5704 5703 5701 5701 5700 5700 5699 5698 5697
5736 5729 5726 5731 5739 5738 5733 5725 5733 5738 5736 5733 5733 5734 5733 5733 5733 5733 5733 5733 5732 5730 5728 5725 5723 5722 5720 5718 5716 5714 5713 5711 5710 5709 5708 5707 5706 5705 5703 5701 5700 5699 5698 5697 5696 5695 5695 5694 5692
5726 5728 5726 5726 5733 5732 5727 5726 5732 5734 5732 5732 5732 5732 5731 5730 5730 5731 5730 5730 5729 5727 5726 5723 5721 5719 5717 5715 5714 5711 5709 5708 5706 5705 5704 5703 5702 5701 5699 5698 5697 5696 5694 5693 5692 5691 5690 5690 5689
5733 5728 5725 5726 5732 5728 5726 5726 5730 5732 5730 5729 5729 5729 5729 5728 5729 5728 5727 5726 5725 5724 5722 5720 5718 5717 5715 5712 5709 5706 5705 5704 5702 5701 5700 5699 5698 5697 5696 5695 5695 5693 5691 5690 5690 5688 5686 5686 5687
5729 5724 5723 5725 5729 5726 5724 5725 5730 5730 5727 5727 5727 5727 5726 5725 5724 5723 5723 5722 5721 5720 5718 5717 5715 5714 5712 5709 5708 5705 5703 5700 5698 5696 5695 5694 5694 5694 5693 5693 5692 5690 5687 5687 5686 5684 5683 5683 5685
5726 5723 5722 5719 5723 5726 5722 5721 5726 5728 5726 5724 5724 5724 5725 5722 5721 5720 5720 5718 5717 5716 5715 5714 5713 5711 5709 5707 5705 5703 5700 5698 5695 5692 5691 5691 5691 5691 5690 5690 5689 5688 5687 5685 5683 5683 5681 5680 5682
5719 5726 5722 5718 5716 5717 5717 5709 5722 5725 5721 5719 5719 5720 5720 5719 5718 5716 5715 5715 5714 5713 5713 5712 5711 5709 5707 5705 5703 5700 5695 5693 5693 5691 5689 5688 5688 5687 5687 5687 5687 5686 5685 5683 5683 5682 5681 5679 5679
5722 5724 5721 5718 5716 5713 5716 5709 5718 5722 5716 5717 5717 5717 5717 5716 5714 5712 5712 5711 5711 5710 5709 5708 5707 5706 5704 5702 5699 5697 5695 5693 5692 5689 5687 5686 5686 5685 5684 5684 5684 5684 5683 5682 5681 5680 5679 5679 5678
5721 5719 5716 5716 5714 5701 5709 5705 5707 5717 5716 5716 5716 5715 5714 5713 5711 5710 5709 5708 5707 5706 5704 5703 5702 5700 5699 5697 5697 5695 5692 5690 5688 5686 5684 5683 5683 5682 5682 5682 5682 5681 5681 5680 5679 5678 5677 5677 5676
5718 5710 5700 5697 5696 5700 5707 5701 5706 5716 5716 5714 5712 5712 5712 5710 5708 5706 5704 5703 5702 5701 5700 5699 5697 5695 5694 5693 5693 5693 5690 5688 5686 5684 5682 5681 5680 5680 5679 5679 5679 5679 5678 5677 5676 5676 5676 5676 5674
5712 5709 5693 5684 5688 5696 5701 5697 5708 5713 5712 5712 5710 5709 5707 5706 5705 5702 5700 5699 5698 5697 5696 5695 5693 5692 5690 5689 5689 5689 5688 5685 5684 5682 5681 5680 5679 5678 5677 5676 5676 5676 5675 5674 5673 5673 5673 5674 5673
5706 5705 5707 5696 5692 5687 5697 5701 5705 5707 5706 5705 5704 5703 5701 5701 5699 5697 5696 5695 5695 5694 5692 5692 5690 5689 5687 5685 5684 5684 5683 5682 5680 5679 5679 5677 5677 5675 5674 5673 5672 5672 5671 5671 5671 5670 5670 5671 5671
5708 5705 5697 5688 5677 5678 5686 5691 5695 5697 5698 5699 5698 5697 5697 5696 5695 5694 5692 5691 5691 5691 5689 5688 5687 5686 5683 5682 5681 5680 5679 5678 5676 5675 5674 5673 5673 5671 5670 5670 5670 5669 5668 5667 5667 5667 5667 5668 5667
5695 5693 5692 5689 5684 5675 5674 5686 5701 5697 5696 5695 5694 5694 5693 5691 5690 5689 5687 5686 5685 5685 5684 5683 5682 5681 5679 5678 5677 5675 5674 5673 5672 5670 5669 5669 5668 5668 5667 5666 5666 5666 5665 5664 5663 5663 5664 5664 5665
5695 5693 5689 5678 5677 5676 5672 5680 5701 5697 5694 5692 5691 5690 5689 5687 5686 5684 5682 5680 5679 5678 5677 5677 5677 5675 5674 5673 5672 5671 5669 5668 5667 5666 5665 5664 5664 5663 5663 5662 5662 5661 5661 5660 5660 5659 5659 5660 5660